User: anonymous   Login
Location: Bay Ridge
(40.6340°N, 74.0146°W)
Time: 21:45:34
(UTC+00:00)
Language:

Cosmos 1606 - Orbit

View from above orbital plane
View from above orbital plane
View from above satellite
View from above satellite

Ground track
Ground track

The orbit data is extracted from the following two-line orbital elements,

1 15369U 84111A   20020.14672556 +.00000290 +00000-0 +13143-4 0  9996
2 15369 082.5277 270.2676 0016557 208.0983 151.9358 15.16556063923948
Epoch (UTC): 20 January 2020 03:31:17
Eccentricity: 0.0016557
inclination: 82.5277°
perigee height: 505 km
apogee height: 527 km
right ascension of ascending node: 270.2676°
argument of perigee: 208.0983°
revolutions per day: 15.16556063
mean anomaly at epoch: 151.9358°
orbit number at epoch: 92394

The dashed part of the orbit path shows where the satellite is in the earth's shadow,  

DLR